Regional Weather Roundup
Issued by NWS Green Bay, WI

Home | Current Version | Previous Version | Text Only | Print | Product List | Glossary On
Versions: 1 2 3 4 5 6 7 8 9 10 11 12 13 14 15 16 17 18 19 20 21 22 23 24 25 26 27 28 29 30 31 32 33 34 35 36 37 38 39 40 41 42 43 44 45 46 47 48 49 50
000
ASUS43 KGRB 282159
RWRGRB

NORTH-CENTRAL AND NORTHEAST WISCONSIN REGIONAL WEATHER ROUNDUP
NATIONAL WEATHER SERVICE GREEN BAY WI
500 PM CDT MON JUL 28 2014

WIZ005-009-010>012-018-019-282300-
NORTH CENTRAL WISCONSIN

CITY           SKY/WX    TMP DP  RH WIND       PRES   REMARKS
IRONWOOD       NOT AVBL
MANITOWISH WTR NOT AVBL
ARBOR VITAE    NOT AVBL
EAGLE RIVER    NOT AVBL
LAND O LAKES   NOT AVBL
RHINELANDER    CLOUDY    67  51  56 NW7       30.11S
PHILLIPS       NOT AVBL
ANTIGO         NOT AVBL
TOMAHAWK       NOT AVBL
MERRILL        NOT AVBL
$$

WIZ013-073-282300-
NORTHEAST WISCONSIN

CITY           SKY/WX    TMP DP  RH WIND       PRES   REMARKS
IRON MOUNTAIN  CLOUDY    70  50  49 NW12      30.04F
MARINETTE      PTSUNNY   66  54  63 SW3       30.03F
$$

WIZ017-030-035>037-045-282300-
CENTRAL WISCONSIN

CITY           SKY/WX    TMP DP  RH WIND       PRES   REMARKS
MEDFORD        NOT AVBL
WAUSAU         CLOUDY    71  50  47 NW13      30.08S
MOSINEE        PTSUNNY   70  52  52 NW10G21   30.11S
MARSHFIELD     MOSUNNY   73  52  47 NW14G23   30.11S
WISC RAPIDS    MOSUNNY   74  52  46 NW13      30.11S
STEVENS POINT  NOT AVBL
WAUPACA        NOT AVBL
SHAWANO        CLOUDY    72  50  46 N7        30.07S
CLINTONVILLE   CLOUDY    72  46  40 N8        30.06S
$$

WIZ038-039-048-051-282300-
FOX VALLEY

CITY           SKY/WX    TMP DP  RH WIND       PRES   REMARKS
NWS GREEN BAY  CLOUDY    72  54  53 N8        30.05S
APPLETON       PTSUNNY   73  46  38 NW9G16    30.06F
OSHKOSH        CLOUDY    74  52  46 N8        30.05F
FOND DU LAC    PTSUNNY   72  50  45 NW8       30.06F
$$

WIZ022-050-052-282300-
EAST CENTRAL WISCONSIN

CITY           SKY/WX    TMP DP  RH WIND       PRES   REMARKS
STURGEON BAY   CLOUDY    64  48  55 S6        30.06S
MANITOWOC      NOT AVBL
SHEBOYGAN      MOSUNNY   66  50  56 E6        30.07F
$$

LMZ563-521-522-541>543-282300-
LAKESHORE

STATION/POSITION TIME  TEMP    WIND        PRES    VSBY  WAVE
                       AIR SEA DIR/SP/G                  HT/PER
                 (UTC) (F)     (DEG/KT/KT) (MB)    (MI)  (FT/S)
SHEBOYGAN LKSHOR 2100   58      90/  3/  3 1018.9F
KEWAUNEE LKSHORE 2100   55     180/  7/  8 1018.7F
NORTHPORT PIER   2100   68     280/  3/  7 1016.9F
N MID LAKE BUOY  2100   55 55  200/  8/  8 1016.5F         1
S GREEN BAY BUOY 2100   65 67  200/  8     1018.4R
STURGEON BAY CG  2100   56 52  180/  7     1019.2      6   1
CHAMBERS ISLAND  2100   64     180/  3/  6 1017.6S
MENOMINEE LKSHOR 2100   65     160/  5/  7 1018.0S
$$


USA.gov is the U.S. government's official web portal to all federal, state and local government web resources and services.